#timestamp,LO_Frequency,Hit,StdDev 
1617796815.7,286047001.8,N
1617796835.6,286046999.9,N
1617796855.4,286047001.6,N
1617796875.2,286047000.5,N
1617796895.1,286046999.1,N
1617796896.0,286046999.1,N
1617796915.8,286046999.1,N
1617796935.7,286046998.4,N
1617796955.5,286046999.7,N
1617796975.3,286047002.5,N
1617796995.2,286047001.9,N
1617797015.0,286047002.2,N
1617797015.9,286047002.2,N
1617797035.8,286047001.5,N
1617797055.6,286046999.9,N
1617797075.4,286047001.0,N
1617797095.3,286047000.1,N
1617797115.1,286047002.4,N
1617797135.8,286047000.2,N
1617797155.7,286047002.3,N
1617797175.5,286047005.2,Y
1617797195.4,286047005.3,P
1617797215.2,286047001.7,N
1617797235.0,286047003.9,N
1617797235.9,286047003.9,N
1617797255.8,286047003.9,N
1617797275.6,286047003.6,N
1617797295.5,286047005.2,Y
1617797315.3,286047000.0,P
1617797335.1,286046999.0,N
1617797355.9,286047000.6,N
1617797375.7,286047000.6,N
1617797395.6,286047004.4,Y
1617797415.4,286047002.6,P
1617797435.2,286047003.7,P
1617797455.1,286047005.6,P
1617797456.0,286047005.6,Y
1617797475.8,286047002.8,P
1617797495.7,286047000.3,N
1617797515.5,286047000.0,N
1617797535.3,286047000.7,N
1617797555.2,286047000.1,N
1617797575.9,286047000.8,N
1617797595.7,286047001.8,N
1617797615.6,286047003.5,Y
1617797635.4,286047005.5,P
1617797655.2,286047003.8,N
1617797675.1,286047000.5,N
1617797676.0,286047000.5,N
1617797695.8,286047001.0,N
1617797715.7,286046996.6,N
1617797735.5,286046998.0,N
1617797755.3,286046999.4,N
1617797775.2,286046998.5,N
1617797825.0,286046997.3,E
1617797835.9,286046997.7,N
1617797855.7,286046999.5,P
1617797875.5,286046999.4,N
1617797895.4,286046998.1,N
1617797915.2,286047001.0,N
1617797935.1,286047001.2,N
1617797936.0,286047001.2,N
1617797955.8,286047000.2,N
1617797975.6,286047011.9,Y
1617797995.5,286047003.9,P
1617798015.3,286047004.0,N
1617798035.1,286047001.7,N
1617798055.9,286047002.4,N
1617798075.7,286047000.4,N
1617798095.6,286047001.8,N
1617798115.4,286047006.0,Y
1617798135.2,286046999.8,P
1617798155.1,286046998.4,N
1617798156.0,286046998.4,N
1617798175.8,286047000.7,N
1617798195.7,286047002.2,N
1617798215.5,286046999.9,N
1617798235.3,286046996.6,N
1617798255.2,286046998.7,N
1617798275.9,286046996.9,N
1617798295.7,286046995.1,N
1617798315.6,286046995.5,N
1617798335.4,286046993.4,N
1617798355.3,286046996.1,N
1617798375.1,286046993.4,N
1617798376.0,286046993.4,N
1617798395.8,286046997.4,N
1617798415.7,286047000.8,N
1617798435.5,286046998.5,N
1617798455.3,286046999.3,N
1617798475.2,286046999.5,N
1617798495.0,286046999.5,N
1617798495.9,286046999.5,N
1617798515.8,286046995.0,N
1617798535.6,286046995.4,N
1617798555.4,286046997.5,N
1617798575.3,286046997.7,N
1617798595.1,286046999.4,N
1617798615.8,286046999.3,N
1617798635.7,286047001.2,N
1617798655.5,286046998.6,N
1617798675.4,286047000.9,N
1617798695.2,286046999.0,N
1617798715.0,286046997.2,N
1617798715.9,286046997.2,N
1617798735.8,286046995.3,N
1617798755.6,286046994.8,N
1617798775.4,286046993.1,Y
1617798795.3,286046996.1,P
1617798815.1,286046995.9,P
1617798835.9,286046995.7,P
1617798855.7,286046996.1,Y
1617798875.5,286047001.1,P
1617798895.4,286046999.5,N
1617798915.2,286046997.0,N
1617798935.0,286046996.6,N
1617798935.9,286046996.6,N
1617798955.8,286046998.8,N
1617798975.6,286046997.4,N
1617798995.5,286046998.6,N
1617799015.3,286047002.4,N
1617799035.1,286047003.8,N
1617799055.9,286047004.7,N
1617799075.7,286047005.0,N
1617799095.5,286047001.9,N
1617799115.4,286047001.1,N
1617799135.2,286046998.8,N
1617799155.1,286046999.9,N
1617799156.0,286046999.9,N
1617799175.8,286047000.2,N
1617799195.6,286047000.0,N
1617799215.5,286047001.0,N
1617799235.3,286047002.8,N
1617799255.1,286047004.1,N
1617799275.9,286047004.2,N
1617799295.7,286047001.3,N
1617799315.6,286046999.7,N
1617799335.4,286047001.5,N
1617799355.2,286047000.1,N
1617799375.1,286047000.3,N
1617799376.0,286047000.3,N
1617799395.8,286047000.2,N
1617799415.7,286046999.3,N
1617799435.5,286046999.6,N
1617799455.3,286047000.5,N
1617799475.2,286046999.0,N
1617799495.0,286046998.8,N
1617799495.9,286046998.8,N
1617799515.8,286046998.1,N
1617799535.6,286047000.6,N
1617799555.4,286047001.2,N
1617799575.3,286046998.6,N
1617799595.1,286046998.3,N
1617799615.8,286046997.6,N
1617799635.7,286046994.9,Y
1617799655.5,286046995.3,P
1617799675.4,286046998.4,N
1617799695.2,286046998.2,N
1617799715.0,286047000.8,N
1617799715.9,286047000.8,N
1617799735.8,286047001.4,N
1617799755.6,286047001.7,N
1617799775.5,286047000.3,N
1617799795.3,286047000.7,N
1617799815.1,286047000.4,N
1617799835.9,286047004.8,N
1617799855.7,286047005.1,N
1617799875.5,286047004.7,N
1617799895.4,286047002.9,N
1617799915.2,286047003.1,N
1617799935.1,286047005.4,N
1617799936.0,286047005.4,N
1617799955.8,286047003.1,N
1617799975.6,286047005.4,N
1617799995.5,286047006.5,N
1617800015.3,286047006.7,N
1617800035.2,286047004.8,N
1617800055.9,286047001.7,N
1617800075.7,286047003.8,N
1617800095.6,286047007.4,N
1617800115.4,286047006.7,N
1617800135.2,286047006.2,N
1617800155.1,286047008.7,N
1617800156.0,286047008.7,N
1617800175.8,286047008.5,N
1617800195.7,286047007.3,N
1617800215.5,286047007.6,N
1617800235.3,286047002.9,N
1617800255.2,286047003.3,N
1617800275.0,286047005.3,N
1617800275.9,286047005.3,N
1617800295.7,286047003.8,N
1617800315.6,286047001.9,N
1617800335.4,286047001.9,N
1617800355.3,286047001.9,N
1617800375.1,286047004.4,N
1617800395.8,286047003.9,N
